| time (UTC) | temp C | wind direction | speed KPH | gust KPH | rain 1hr cm | rain 24hr cm | rain mn cm | humidity % | barometer mb |
| 20260502150120 | 19 | 73 | 1.6 | 3.2 | 0.00 | 0.00 | 0.00 | 63 | 4248.8 |
| 20260502130509 | 11 | 143 | 0.0 | 0.0 | 0.00 | 0.00 | 0.00 | 89 | 4247.9 |
| 20260502123451 | 11 | 137 | 0.0 | 0.0 | 0.00 | 0.00 | 0.00 | 89 | 4247.8 |
| 20260502122948 | 10 | 137 | 0.0 | 0.0 | 0.00 | 0.00 | 0.00 | 89 | 4247.6 |
| 20260502122444 | 10 | 137 | 0.0 | 0.0 | 0.00 | 0.00 | 0.00 | 89 | 4247.5 |
| 20260502121943 | 10 | 138 | 0.0 | 0.0 | 0.00 | 0.00 | 0.00 | 89 | 4247.6 |
| 20260502121439 | 10 | 146 | 0.0 | 0.0 | 0.00 | 0.00 | 0.00 | 89 | 4247.6 |
| 20260502120937 | 10 | 159 | 0.0 | 0.0 | 0.00 | 0.00 | 0.00 | 89 | 4247.6 |
| 20260502120433 | 10 | 163 | 0.0 | 0.0 | 0.00 | 0.00 | 0.00 | 89 | 4247.4 |
| 20260502115930 | 10 | 164 | 0.0 | 0.0 | 0.00 | 0.00 | 0.00 | 89 | 4247.3 |
| 20260502115428 | 10 | 160 | 0.0 | 0.0 | 0.00 | 0.00 | 0.00 | 89 | 4247.2 |
| 20260502114923 | 10 | 158 | 0.0 | 0.0 | 0.00 | 0.00 | 0.00 | 89 | 4246.9 |
| 20260502114421 | 10 | 154 | 0.0 | 0.0 | 0.00 | 0.00 | 0.00 | 89 | 4246.9 |
| 20260502113918 | 10 | 142 | 0.0 | 0.0 | 0.00 | 0.00 | 0.00 | 89 | 4246.7 |
| 20260502113415 | 10 | 152 | 0.0 | 0.0 | 0.00 | 0.00 | 0.00 | 89 | 4246.4 |
| 20260502112914 | 10 | 147 | 0.0 | 0.0 | 0.00 | 0.00 | 0.00 | 89 | 4246.2 |
| 20260502112411 | 10 | 141 | 0.0 | 0.0 | 0.00 | 0.00 | 0.00 | 89 | 4246.2 |
| 20260502111908 | 10 | 143 | 0.0 | 0.0 | 0.00 | 0.00 | 0.00 | 89 | 4246.0 |
| 20260502111405 | 10 | 146 | 0.0 | 0.0 | 0.00 | 0.00 | 0.00 | 89 | 4246.1 |
| 20260502110902 | 10 | 144 | 0.0 | 0.0 | 0.00 | 0.00 | 0.00 | 89 | 4246.3 |
| 20260502110400 | 10 | 153 | 0.0 | 0.0 | 0.00 | 0.00 | 0.00 | 89 | 4246.2 |
| 20260502105858 | 10 | 154 | 0.0 | 0.0 | 0.00 | 0.00 | 0.00 | 89 | 4246.4 |
| 20260502105354 | 10 | 154 | 0.0 | 0.0 | 0.00 | 0.00 | 0.00 | 89 | 4246.5 |
| 20260502104852 | 10 | 154 | 0.0 | 0.0 | 0.00 | 0.00 | 0.00 | 89 | 4246.5 |
| 20260502104349 | 10 | 156 | 0.0 | 0.0 | 0.00 | 0.00 | 0.00 | 89 | 4246.2 |
| 20260502103847 | 10 | 158 | 0.0 | 0.0 | 0.00 | 0.00 | 0.00 | 89 | 4246.4 |
| 20260502103344 | 10 | 158 | 0.0 | 0.0 | 0.00 | 0.00 | 0.00 | 89 | 4246.3 |
| 20260502102841 | 10 | 157 | 0.0 | 0.0 | 0.00 | 0.00 | 0.00 | 89 | 4246.3 |
| 20260502102337 | 10 | 157 | 0.0 | 0.0 | 0.00 | 0.00 | 0.00 | 89 | 4246.3 |
| 20260502101835 | 10 | 157 | 0.0 | 0.0 | 0.00 | 0.00 | 0.00 | 89 | 4246.1 |
| 20260502101333 | 10 | 158 | 0.0 | 0.0 | 0.00 | 0.00 | 0.00 | 89 | 4246.2 |
| 20260502100831 | 10 | 156 | 0.0 | 0.0 | 0.00 | 0.00 | 0.00 | 89 | 4246.0 |
| 20260502100331 | 10 | 157 | 0.0 | 0.0 | 0.00 | 0.00 | 0.00 | 89 | 4246.1 |
| 20260502091304 | 11 | 156 | 0.0 | 0.0 | 0.00 | 0.00 | 0.00 | 89 | 4245.9 |
| 20260502090801 | 11 | 156 | 0.0 | 0.0 | 0.00 | 0.00 | 0.00 | 89 | 4245.8 |
| 20260502090258 | 11 | 156 | 0.0 | 0.0 | 0.00 | 0.00 | 0.00 | 89 | 4245.8 |
| 20260502071159 | 12 | 152 | 0.0 | 0.0 | 0.00 | 0.00 | 0.00 | 88 | 4246.0 |
| 20260502070657 | 12 | 146 | 0.0 | 0.0 | 0.00 | 0.00 | 0.00 | 88 | 4245.8 |
| 20260502070154 | 12 | 148 | 0.0 | 0.0 | 0.00 | 0.00 | 0.00 | 89 | 4246.0 |
| 20260502065653 | 12 | 150 | 0.0 | 0.0 | 0.00 | 0.00 | 0.00 | 89 | 4245.9 |
| 20260502065149 | 12 | 144 | 0.0 | 0.0 | 0.00 | 0.00 | 0.00 | 89 | 4245.9 |
| 20260502064649 | 12 | 150 | 0.0 | 0.0 | 0.00 | 0.00 | 0.00 | 89 | 4246.1 |
| 20260502064145 | 12 | 167 | 0.0 | 0.0 | 0.00 | 0.00 | 0.00 | 89 | 4245.9 |
| 20260502063643 | 12 | 179 | 0.0 | 0.0 | 0.00 | 0.00 | 0.00 | 89 | 4246.1 |
| 20260502063141 | 12 | 166 | 0.0 | 0.0 | 0.00 | 0.00 | 0.00 | 88 | 4246.1 |
| 20260502062637 | 12 | 162 | 0.0 | 0.0 | 0.00 | 0.00 | 0.00 | 88 | 4245.7 |
| 20260502062135 | 12 | 164 | 0.0 | 0.0 | 0.00 | 0.00 | 0.00 | 88 | 4246.0 |
| 20260502061633 | 12 | 194 | 0.0 | 0.0 | 0.00 | 0.00 | 0.00 | 88 | 4245.6 |
| 20260502061130 | 12 | 165 | 0.0 | 0.0 | 0.00 | 0.00 | 0.00 | 88 | 4245.9 |
| 20260502060630 | 12 | 137 | 0.0 | 0.0 | 0.00 | 0.00 | 0.00 | 88 | 4245.7 |
| 20260502060127 | 12 | 136 | 0.0 | 1.6 | 0.00 | 0.00 | 0.00 | 88 | 4246.2 |
| 20260502055625 | 12 | 137 | 1.6 | 1.6 | 0.00 | 0.00 | 0.00 | 89 | 4245.7 |
| 20260502055123 | 12 | 138 | 1.6 | 1.6 | 0.00 | 0.00 | 0.00 | 89 | 4245.8 |
| 20260502054622 | 12 | 138 | 0.0 | 1.6 | 0.00 | 0.00 | 0.00 | 89 | 4245.7 |
| 20260502054119 | 12 | 138 | 0.0 | 0.0 | 0.00 | 0.00 | 0.00 | 89 | 4245.8 |
| 20260502053616 | 12 | 138 | 0.0 | 0.0 | 0.00 | 0.00 | 0.00 | 89 | 4246.0 |
| 20260502053113 | 12 | 138 | 1.6 | 1.6 | 0.00 | 0.00 | 0.00 | 89 | 4245.9 |
| 20260502052611 | 12 | 140 | 0.0 | 0.0 | 0.00 | 0.00 | 0.00 | 89 | 4246.1 |
| 20260502052109 | 12 | 143 | 0.0 | 0.0 | 0.00 | 0.00 | 0.00 | 89 | 4246.0 |
| 20260502051607 | 12 | 143 | 0.0 | 0.0 | 0.00 | 0.00 | 0.00 | 89 | 4246.0 |
| 20260502051105 | 12 | 143 | 0.0 | 0.0 | 0.00 | 0.00 | 0.00 | 89 | 4246.1 |
| 20260502050600 | 12 | 152 | 0.0 | 0.0 | 0.00 | 0.00 | 0.00 | 89 | 4246.3 |
| 20260502050057 | 12 | 142 | 0.0 | 0.0 | 0.00 | 0.00 | 0.00 | 89 | 4246.2 |
| 20260502045554 | 12 | 143 | 0.0 | 0.0 | 0.00 | 0.20 | 0.20 | 89 | 4245.8 |
| 20260502045051 | 12 | 142 | 0.0 | 0.0 | 0.00 | 0.20 | 0.20 | 89 | 4246.0 |
| 20260502044547 | 12 | 144 | 0.0 | 0.0 | 0.00 | 0.20 | 0.20 | 89 | 4245.7 |
| 20260502044044 | 12 | 152 | 0.0 | 0.0 | 0.00 | 0.20 | 0.20 | 89 | 4245.9 |
| 20260502043542 | 12 | 157 | 0.0 | 0.0 | 0.00 | 0.20 | 0.20 | 89 | 4245.8 |
| 20260502043038 | 12 | 166 | 0.0 | 0.0 | 0.00 | 0.20 | 0.20 | 89 | 4245.9 |
| 20260502042533 | 12 | 165 | 0.0 | 0.0 | 0.00 | 0.20 | 0.20 | 89 | 4246.0 |
| 20260502042031 | 12 | 165 | 0.0 | 0.0 | 0.00 | 0.20 | 0.20 | 89 | 4245.9 |
| 20260502041529 | 12 | 165 | 0.0 | 0.0 | 0.00 | 0.20 | 0.20 | 89 | 4245.6 |
| 20260502041025 | 12 | 170 | 0.0 | 0.0 | 0.00 | 0.20 | 0.20 | 88 | 4245.8 |
| 20260502040522 | 12 | 173 | 0.0 | 0.0 | 0.00 | 0.20 | 0.20 | 89 | 4245.8 |
| 20260502040019 | 12 | 186 | 0.0 | 1.6 | 0.00 | 0.20 | 0.20 | 88 | 4245.7 |
| 20260502035515 | 13 | 190 | 0.0 | 1.6 | 0.00 | 0.20 | 0.20 | 88 | 4245.8 |
| 20260502035013 | 13 | 192 | 0.0 | 0.0 | 0.00 | 0.20 | 0.20 | 88 | 4245.8 |
| 20260502034510 | 13 | 194 | 0.0 | 0.0 | 0.00 | 0.20 | 0.20 | 88 | 4245.6 |
| 20260502034009 | 13 | 192 | 0.0 | 1.6 | 0.00 | 0.20 | 0.20 | 88 | 4245.6 |
| 20260502033507 | 13 | 168 | 0.0 | 1.6 | 0.00 | 0.20 | 0.20 | 87 | 4245.8 |
| 20260502033003 | 13 | 184 | 0.0 | 0.0 | 0.00 | 0.20 | 0.20 | 87 | 4245.4 |
| 20260502032459 | 13 | 180 | 0.0 | 0.0 | 0.00 | 0.20 | 0.20 | 87 | 4245.6 |
| 20260502031956 | 13 | 182 | 0.0 | 1.6 | 0.00 | 0.20 | 0.20 | 87 | 4245.3 |
| 20260502031454 | 13 | 133 | 0.0 | 0.0 | 0.00 | 0.20 | 0.20 | 88 | 4245.4 |
| 20260502030952 | 13 | 116 | 1.6 | 1.6 | 0.00 | 0.20 | 0.20 | 87 | 4245.3 |
| 20260502030450 | 13 | 117 | 1.6 | 1.6 | 0.00 | 0.20 | 0.20 | 87 | 4245.1 |
| 20260502025948 | 13 | 111 | 0.0 | 1.6 | 0.00 | 0.20 | 0.20 | 87 | 4245.1 |
| 20260502025445 | 13 | 111 | 0.0 | 0.0 | 0.00 | 0.20 | 0.20 | 87 | 4245.0 |
| 20260502024943 | 13 | 126 | 0.0 | 0.0 | 0.00 | 0.20 | 0.20 | 86 | 4245.1 |
| 20260502024441 | 13 | 136 | 0.0 | 0.0 | 0.00 | 0.20 | 0.20 | 86 | 4245.1 |
| 20260502023939 | 13 | 119 | 0.0 | 1.6 | 0.00 | 0.20 | 0.20 | 86 | 4245.3 |
| 20260502023436 | 14 | 127 | 0.0 | 1.6 | 0.00 | 0.20 | 0.20 | 86 | 4245.2 |
| 20260502022933 | 13 | 210 | 1.6 | 3.2 | 0.00 | 0.20 | 0.20 | 87 | 4245.1 |
| 20260502022429 | 13 | 159 | 0.0 | 0.0 | 0.00 | 0.20 | 0.20 | 86 | 4245.1 |
| 20260502021926 | 13 | 128 | 0.0 | 0.0 | 0.00 | 0.20 | 0.20 | 86 | 4245.3 |
| 20260502021424 | 13 | 112 | 0.0 | 1.6 | 0.00 | 0.20 | 0.20 | 85 | 4245.2 |
| 20260502020921 | 13 | 115 | 0.0 | 0.0 | 0.00 | 0.20 | 0.20 | 85 | 4245.2 |
| 20260502020419 | 13 | 114 | 0.0 | 0.0 | 0.00 | 0.20 | 0.20 | 85 | 4245.1 |
| 20260502015915 | 13 | 134 | 0.0 | 0.0 | 0.00 | 0.20 | 0.20 | 84 | 4245.2 |
| 20260502015413 | 13 | 143 | 0.0 | 0.0 | 0.00 | 0.20 | 0.20 | 84 | 4245.2 |
| 20260502014909 | 13 | 134 | 0.0 | 0.0 | 0.00 | 0.20 | 0.20 | 84 | 4245.1 |
| 20260502014406 | 13 | 132 | 1.6 | 1.6 | 0.00 | 0.20 | 0.20 | 84 | 4244.7 |
| 20260502013902 | 14 | 130 | 0.0 | 1.6 | 0.00 | 0.20 | 0.20 | 84 | 4244.4 |
| 20260502013358 | 14 | 128 | 0.0 | 0.0 | 0.00 | 0.20 | 0.20 | 83 | 4244.5 |
| 20260502012855 | 14 | 141 | 0.0 | 0.0 | 0.00 | 0.20 | 0.20 | 83 | 4244.6 |
| 20260502012353 | 14 | 131 | 1.6 | 1.6 | 0.00 | 0.20 | 0.20 | 84 | 4244.3 |
| 20260502011850 | 14 | 182 | 1.6 | 1.6 | 0.00 | 0.20 | 0.20 | 85 | 4244.4 |
| 20260502011346 | 14 | 175 | 1.6 | 1.6 | 0.00 | 0.20 | 0.20 | 84 | 4244.0 |
| 20260502010843 | 14 | 131 | 0.0 | 0.0 | 0.00 | 0.20 | 0.20 | 83 | 4243.7 |
| 20260502010340 | 15 | 125 | 0.0 | 1.6 | 0.00 | 0.20 | 0.20 | 83 | 4243.6 |
| 20260502005837 | 15 | 114 | 0.0 | 1.6 | 0.00 | 0.20 | 0.20 | 81 | 4243.9 |
| 20260502005335 | 15 | 183 | 1.6 | 3.2 | 0.00 | 0.20 | 0.20 | 81 | 4244.2 |
| 20260502004832 | 15 | 188 | 1.6 | 1.6 | 0.00 | 0.20 | 0.20 | 81 | 4243.7 |
| 20260502004327 | 15 | 137 | 1.6 | 1.6 | 0.00 | 0.20 | 0.20 | 81 | 4243.7 |
| 20260502003826 | 15 | 171 | 0.0 | 0.0 | 0.00 | 0.20 | 0.20 | 81 | 4243.9 |
| 20260502003322 | 15 | 275 | 1.6 | 1.6 | 0.00 | 0.20 | 0.20 | 81 | 4243.5 |
| 20260502002818 | 15 | 156 | 0.0 | 0.0 | 0.00 | 0.20 | 0.20 | 81 | 4243.4 |
| 20260502002316 | 15 | 132 | 0.0 | 0.0 | 0.00 | 0.20 | 0.20 | 80 | 4243.1 |
| 20260502001813 | 15 | 125 | 0.0 | 0.0 | 0.00 | 0.20 | 0.20 | 78 | 4243.5 |
| 20260502001311 | 15 | 121 | 0.0 | 0.0 | 0.00 | 0.20 | 0.20 | 79 | 4243.3 |
| 20260502000808 | 15 | 119 | 0.0 | 0.0 | 0.00 | 0.20 | 0.20 | 80 | 4243.1 |
| 20260502000306 | 15 | 116 | 0.0 | 0.0 | 0.00 | 0.20 | 0.20 | 79 | 4243.1 |
| 20260501235801 | 16 | 102 | 1.6 | 1.6 | 0.00 | 0.20 | 0.20 | 79 | 4243.2 |
| 20260501235258 | 16 | 163 | 0.0 | 1.6 | 0.00 | 0.20 | 0.20 | 78 | 4243.2 |
| 20260501234753 | 16 | 126 | 0.0 | 0.0 | 0.00 | 0.20 | 0.20 | 77 | 4243.5 |
| 20260501234250 | 16 | 90 | 1.6 | 1.6 | 0.00 | 0.20 | 0.20 | 78 | 4243.4 |
| 20260501233749 | 15 | 140 | 0.0 | 0.0 | 0.00 | 0.20 | 0.20 | 79 | 4243.6 |
| 20260501233246 | 15 | 164 | 0.0 | 0.0 | 0.00 | 0.20 | 0.20 | 80 | 4243.8 |
| 20260501232741 | 15 | 209 | 1.6 | 1.6 | 0.00 | 0.20 | 0.20 | 78 | 4243.4 |
| 20260501232239 | 15 | 125 | 0.0 | 0.0 | 0.00 | 0.20 | 0.20 | 79 | 4243.1 |
| 20260501231737 | 15 | 88 | 0.0 | 1.6 | 0.00 | 0.20 | 0.20 | 79 | 4243.0 |
| 20260501231235 | 15 | 111 | 0.0 | 1.6 | 0.00 | 0.20 | 0.20 | 78 | 4243.2 |
| 20260501230732 | 15 | 168 | 0.0 | 0.0 | 0.00 | 0.20 | 0.20 | 77 | 4243.7 |
| 20260501230231 | 16 | 206 | 1.6 | 1.6 | 0.00 | 0.20 | 0.20 | 76 | 4243.5 |
| 20260501225728 | 16 | 127 | 0.0 | 0.0 | 0.00 | 0.20 | 0.20 | 72 | 4243.3 |
| 20260501225225 | 16 | 125 | 0.0 | 0.0 | 0.00 | 0.20 | 0.20 | 72 | 4243.2 |
| 20260501224721 | 16 | 117 | 1.6 | 3.2 | 0.00 | 0.20 | 0.20 | 71 | 4243.1 |
| 20260501224219 | 16 | 109 | 0.0 | 0.0 | 0.00 | 0.20 | 0.20 | 69 | 4243.1 |
| 20260501223715 | 16 | 104 | 1.6 | 1.6 | 0.00 | 0.20 | 0.20 | 70 | 4242.4 |
| 20260501223212 | 16 | 93 | 0.0 | 1.6 | 0.00 | 0.20 | 0.20 | 70 | 4242.4 |
| 20260501222708 | 16 | 105 | 0.0 | 1.6 | 0.00 | 0.20 | 0.20 | 72 | 4242.6 |
| 20260501222205 | 16 | 115 | 0.0 | 1.6 | 0.00 | 0.20 | 0.20 | 71 | 4242.5 |
| 20260501221701 | 16 | 162 | 0.0 | 1.6 | 0.00 | 0.20 | 0.20 | 72 | 4242.6 |
| 20260501221159 | 16 | 106 | 1.6 | 1.6 | 0.00 | 0.20 | 0.20 | 72 | 4242.2 |
| 20260501220656 | 16 | 114 | 1.6 | 1.6 | 0.00 | 0.20 | 0.20 | 72 | 4241.7 |
| 20260501220153 | 16 | 100 | 1.6 | 1.6 | 0.00 | 0.20 | 0.20 | 71 | 4241.7 |
| 20260501215650 | 16 | 150 | 1.6 | 1.6 | 0.00 | 0.20 | 0.20 | 70 | 4241.5 |
| 20260501215146 | 16 | 122 | 0.0 | 0.0 | 0.00 | 0.20 | 0.20 | 72 | 4241.5 |
| 20260501214641 | 16 | 102 | 1.6 | 1.6 | 0.00 | 0.20 | 0.20 | 72 | 4241.6 |
| 20260501214136 | 16 | 102 | 0.0 | 0.0 | 0.00 | 0.20 | 0.20 | 72 | 4241.7 |
| 20260501213634 | 16 | 126 | 1.6 | 1.6 | 0.00 | 0.20 | 0.20 | 72 | 4242.0 |
| 20260501213129 | 16 | 110 | 0.0 | 1.6 | 0.00 | 0.20 | 0.20 | 68 | 4242.1 |
| 20260501212626 | 16 | 116 | 0.0 | 1.6 | 0.00 | 0.20 | 0.20 | 68 | 4241.9 |
| 20260501212123 | 16 | 122 | 0.0 | 1.6 | 0.00 | 0.20 | 0.20 | 66 | 4242.2 |
| 20260501211619 | 16 | 113 | 3.2 | 3.2 | 0.00 | 0.20 | 0.20 | 64 | 4242.4 |
| 20260501211118 | 16 | 121 | 0.0 | 0.0 | 0.00 | 0.20 | 0.20 | 64 | 4242.4 |
| 20260501210614 | 16 | 153 | 0.0 | 1.6 | 0.00 | 0.20 | 0.20 | 65 | 4242.5 |
| 20260501210111 | 16 | 145 | 1.6 | 1.6 | 0.00 | 0.20 | 0.20 | 62 | 4242.8 |
| 20260501205607 | 16 | 108 | 3.2 | 4.8 | 0.00 | 0.20 | 0.20 | 63 | 4242.8 |
| 20260501205105 | 16 | 79 | 0.0 | 0.0 | 0.00 | 0.20 | 0.20 | 65 | 4242.8 |
| 20260501204601 | 16 | 78 | 1.6 | 1.6 | 0.00 | 0.20 | 0.20 | 65 | 4242.9 |
| 20260501204057 | 17 | 104 | 3.2 | 3.2 | 0.00 | 0.20 | 0.20 | 63 | 4243.1 |
| 20260501203554 | 17 | 124 | 0.0 | 0.0 | 0.00 | 0.20 | 0.20 | 62 | 4243.2 |
| 20260501203051 | 17 | 93 | 1.6 | 1.6 | 0.00 | 0.20 | 0.20 | 64 | 4243.0 |
| 20260501202548 | 17 | 67 | 3.2 | 3.2 | 0.00 | 0.20 | 0.20 | 63 | 4242.8 |
| 20260501202045 | 17 | 242 | 3.2 | 8.0 | 0.00 | 0.20 | 0.20 | 62 | 4242.5 |
| 20260501201542 | 17 | 131 | 1.6 | 1.6 | 0.00 | 0.20 | 0.20 | 66 | 4242.3 |
| 20260501201038 | 16 | 103 | 1.6 | 3.2 | 0.00 | 0.20 | 0.20 | 64 | 4242.1 |
| 20260501200535 | 16 | 341 | 4.8 | 4.8 | 0.00 | 0.20 | 0.20 | 65 | 4241.9 |
| 20260501200033 | 16 | 25 | 4.8 | 9.7 | 0.00 | 0.20 | 0.20 | 62 | 4241.7 |
| 20260501195530 | 16 | 35 | 4.8 | 9.7 | 0.00 | 0.20 | 0.20 | 64 | 4241.5 |
| 20260501195025 | 17 | 0 | 6.4 | 8.0 | 0.00 | 0.20 | 0.20 | 62 | 4241.7 |
| 20260501194521 | 17 | 347 | 4.8 | 8.0 | 0.00 | 0.20 | 0.20 | 64 | 4241.5 |
| 20260501194017 | 17 | 117 | 3.2 | 8.0 | 0.00 | 0.20 | 0.20 | 64 | 4241.6 |
| 20260501193515 | 17 | 10 | 4.8 | 4.8 | 0.00 | 0.20 | 0.20 | 66 | 4241.9 |
| 20260501193014 | 17 | 93 | 0.0 | 0.0 | 0.00 | 0.20 | 0.20 | 70 | 4242.0 |
| 20260501192510 | 17 | 108 | 4.8 | 4.8 | 0.00 | 0.20 | 0.20 | 68 | 4242.2 |
| 20260501192008 | 17 | 54 | 4.8 | 4.8 | 0.00 | 0.20 | 0.20 | 72 | 4241.9 |
| 20260501191504 | 16 | 28 | 1.6 | 3.2 | 0.00 | 0.20 | 0.20 | 73 | 4242.4 |
| 20260501191001 | 17 | 316 | 6.4 | 11.3 | 0.00 | 0.20 | 0.20 | 72 | 4242.4 |
| 20260501190457 | 16 | 22 | 4.8 | 4.8 | 0.00 | 0.20 | 0.20 | 73 | 4242.7 |
| 20260501185953 | 16 | 59 | 0.0 | 1.6 | 0.00 | 0.20 | 0.20 | 77 | 4242.3 |
| 20260501185449 | 15 | 152 | 4.8 | 4.8 | 0.00 | 0.20 | 0.20 | 76 | 4242.9 |
| 20260501184945 | 15 | 24 | 4.8 | 4.8 | 0.00 | 0.20 | 0.20 | 76 | 4242.9 |
| 20260501184442 | 15 | 56 | 1.6 | 3.2 | 0.00 | 0.20 | 0.20 | 77 | 4243.3 |
| 20260501183936 | 15 | 91 | 3.2 | 3.2 | 0.00 | 0.20 | 0.20 | 77 | 4243.5 |
| 20260501183433 | 15 | 35 | 3.2 | 4.8 | 0.00 | 0.20 | 0.20 | 80 | 4243.4 |
| 20260501182930 | 14 | 313 | 3.2 | 3.2 | 0.00 | 0.20 | 0.20 | 83 | 4243.6 |
| 20260501182427 | 15 | 115 | 1.6 | 1.6 | 0.00 | 0.20 | 0.20 | 85 | 4244.0 |
| 20260501181923 | 15 | 112 | 1.6 | 1.6 | 0.00 | 0.20 | 0.20 | 85 | 4243.8 |
| 20260501181421 | 14 | 145 | 1.6 | 1.6 | 0.00 | 0.20 | 0.20 | 83 | 4244.0 |
| 20260501180918 | 14 | 30 | 4.8 | 4.8 | 0.00 | 0.20 | 0.20 | 84 | 4244.3 |
| 20260501180414 | 14 | 67 | 3.2 | 3.2 | 0.00 | 0.20 | 0.20 | 84 | 4244.3 |
| 20260501175911 | 14 | 54 | 1.6 | 3.2 | 0.00 | 0.20 | 0.20 | 83 | 4244.4 |
| 20260501175408 | 14 | 89 | 3.2 | 3.2 | 0.00 | 0.20 | 0.20 | 85 | 4244.2 |
| 20260501174905 | 14 | 144 | 0.0 | 1.6 | 0.00 | 0.20 | 0.20 | 86 | 4244.4 |
| 20260501174402 | 13 | 76 | 1.6 | 1.6 | 0.00 | 0.20 | 0.20 | 87 | 4244.2 |
| 20260501173900 | 13 | 121 | 1.6 | 1.6 | 0.00 | 0.20 | 0.20 | 89 | 4244.2 |
| 20260501173357 | 13 | 141 | 0.0 | 0.0 | 0.00 | 0.20 | 0.20 | 89 | 4244.5 |
| 20260501172853 | 13 | 101 | 1.6 | 1.6 | 0.00 | 0.20 | 0.20 | 89 | 4244.5 |
| 20260501172348 | 13 | 129 | 1.6 | 1.6 | 0.00 | 0.20 | 0.20 | 89 | 4244.5 |
| 20260501171843 | 13 | 117 | 1.6 | 1.6 | 0.00 | 0.20 | 0.20 | 88 | 4244.8 |
| 20260501171341 | 13 | 94 | 1.6 | 3.2 | 0.00 | 0.20 | 0.20 | 88 | 4244.8 |
| 20260501170837 | 13 | 135 | 0.0 | 1.6 | 0.00 | 0.20 | 0.20 | 88 | 4244.9 |
| 20260501170334 | 13 | 147 | 0.0 | 0.0 | 0.00 | 0.20 | 0.20 | 88 | 4245.1 |
| 20260501165832 | 13 | 121 | 0.0 | 1.6 | 0.00 | 0.20 | 0.20 | 88 | 4244.9 |
| 20260501165330 | 13 | 327 | 1.6 | 1.6 | 0.00 | 0.20 | 0.20 | 89 | 4244.8 |
| 20260501164827 | 13 | 132 | 1.6 | 1.6 | 0.00 | 0.20 | 0.20 | 89 | 4244.8 |
| 20260501164325 | 13 | 122 | 0.0 | 1.6 | 0.00 | 0.20 | 0.20 | 89 | 4244.6 |
| 20260501163820 | 13 | 80 | 1.6 | 1.6 | 0.00 | 0.20 | 0.20 | 89 | 4244.9 |
| 20260501163317 | 13 | 91 | 0.0 | 0.0 | 0.18 | 0.20 | 0.20 | 89 | 4245.1 |
| 20260501162814 | 13 | 91 | 0.0 | 1.6 | 0.18 | 0.20 | 0.20 | 89 | 4245.2 |
| 20260501162311 | 13 | 82 | 0.0 | 1.6 | 0.13 | 0.18 | 0.18 | 88 | 4245.4 |
| 20260501161808 | 13 | 135 | 0.0 | 1.6 | 0.13 | 0.18 | 0.18 | 88 | 4245.8 |
| 20260501161305 | 13 | 135 | 0.0 | 1.6 | 0.00 | 0.15 | 0.15 | 88 | 4245.5 |
| 20260501160801 | 13 | 133 | 1.6 | 1.6 | 0.00 | 0.15 | 0.15 | 88 | 4245.5 |
| 20260501160258 | 13 | 131 | 0.0 | 1.6 | 0.00 | 0.15 | 0.15 | 88 | 4245.6 |
| 20260501155755 | 13 | 134 | 1.6 | 1.6 | 0.18 | 0.15 | 0.15 | 88 | 4245.6 |
| 20260501155252 | 13 | 136 | 0.0 | 0.0 | 0.18 | 0.15 | 0.15 | 88 | 4245.4 |
| 20260501154749 | 13 | 120 | 1.6 | 1.6 | 0.00 | 0.13 | 0.13 | 87 | 4245.4 |
| 20260501154246 | 12 | 116 | 0.0 | 1.6 | 0.00 | 0.13 | 0.13 | 88 | 4245.3 |
| 20260501153743 | 13 | 110 | 0.0 | 0.0 | 0.00 | 0.13 | 0.13 | 88 | 4244.9 |
| 20260501153241 | 13 | 101 | 1.6 | 1.6 | 0.13 | 0.13 | 0.13 | 87 | 4244.8 |
| 20260501152737 | 12 | 96 | 1.6 | 1.6 | 0.13 | 0.13 | 0.13 | 87 | 4245.0 |
| 20260501152234 | 12 | 87 | 0.0 | 1.6 | 0.00 | 0.10 | 0.10 | 87 | 4245.0 |
| 20260501151731 | 12 | 135 | 0.0 | 0.0 | 0.00 | 0.10 | 0.10 | 87 | 4244.8 |
| 20260501151227 | 12 | 115 | 0.0 | 1.6 | 0.00 | 0.10 | 0.10 | 87 | 4245.3 |
| 20260501150724 | 12 | 89 | 0.0 | 0.0 | 0.00 | 0.10 | 0.10 | 88 | 4245.2 |